Weather Roundup
Issued by NWS

Home | Current Version | Previous Version | Text Only | Print | Product List | Glossary On
Versions: 1 2 3 4 5 6 7 8 9 10 11 12 13 14 15 16 17 18 19 20 21 22 23 24 25 26 27 28 29 30 31 32 33 34 35 36 37 38 39 40 41 42 43 44 45 46 47 48 49 50
361
NZUS93 KARX 241810
HRRWXR

CURRENT HOURLY OBSERVATIONS ACROSS
MUCH OF THE UPPER MISSISSIPPI VALLEY
NATIONAL WEATHER SERVICE LA CROSSE WI
100 PM CDT WED AUG 24 2016


...SOUTHEAST MINNESOTA...


CITY           SKY/WX    TMP DP  RH WIND       PRES   REMARKS
ROCHESTER      MOSUNNY   80  71  74 W10       29.94R
ROCHESTER/MAYO MOCLDY    78  67  68 W12       29.92F
WINONA         CLOUDY    77  70  78 N7        29.90R
AUSTIN         CLOUDY    77  68  73 NW8       29.94S
ALBERT LEA     CLOUDY    75  70  83 W6        29.95S
DODGE CENTER   PTSUNNY   79  70  73 NW7       29.94S
PRESTON        PTSUNNY   76  71  82 W5        29.93S
OWATONNA       PTSUNNY   75  66  73 W10       29.95S
FARIBAULT      MOSUNNY   79  70  73 SW8       29.95R
$$

...ELSEWHERE IN MINNESOTA...


CITY           SKY/WX    TMP DP  RH WIND       PRES   REMARKS
MINNEAPOLIS    PTSUNNY   80  63  55 NW9       29.91R
INTNL FALLS    SUNNY     77  57  50 W9G18     29.79S
DULUTH         MOSUNNY   76  66  71 NW12G22   29.83F
RED WING       PTSUNNY   79  66  65 NW9       29.89S
REDWOOD FALLS  CLOUDY    76  59  55 W8        29.98R
MANKATO        MOSUNNY   77  63  61 NW10      29.95S
WORTHINGTON    CLOUDY    73  60  63 NW12      30.03S
FAIRMONT       MOSUNNY   76  63  64 NW9       29.98S
$$

...SOUTHWEST WISCONSIN...


CITY           SKY/WX    TMP DP  RH WIND       PRES   REMARKS
LA CROSSE      CLOUDY    77  50  39 S8        29.89R
PRAIRIE DU CHI CLOUDY    81  70  69 S6        29.89F
BOSCOBEL       CLOUDY    82  72  71 SW5       29.91R
LONE ROCK      PTSUNNY   80  72  76 SW9       29.91F
PLATTEVILLE    CLOUDY    79  75  89 S13       29.94S
FORT MC COY    CLOUDY    73  70  90 SW5       29.91R
CAMP DOUGLAS   PTSUNNY   75  70  83 SW10      29.89R
MAUSTON-NEW LI CLOUDY    76  71  83 SW8G16    29.90R
VIROQUA        CLOUDY    74  71  91 SW6       29.93R
WIS DELLS      CLOUDY    78  70  76 SW13G20   29.90F
$$

...ELSEWHERE IN WISCONSIN...


CITY           SKY/WX    TMP DP  RH WIND       PRES   REMARKS
MILWAUKEE      CLOUDY    81  70  69 SW13G21   29.92F
MADISON        PTSUNNY   80  71  74 SW9       29.91F
GREEN BAY      CLOUDY    77  70  79 S12G21    29.86F
EAU CLAIRE     PTSUNNY   78  67  68 W10       29.88R
BLACK RVR FLS  DRIZZLE   72  72 100 W6        29.90R
MEDFORD        CLOUDY    73  69  86 W12G17    29.88S
WAUSAU         LGT RAIN  69  67  93 W8        29.87S FOG
WIS RAPIDS     LGT RAIN  71  71 100 SW7       29.90S FOG
MARSHFIELD     CLOUDY    71  68  90 W9        29.89R
RICE LAKE      CLOUDY    73  65  77 W8        29.90S
$$

...NORTHEAST IOWA...


CITY           SKY/WX    TMP DP  RH WIND       PRES   REMARKS
WATERLOO       CLOUDY    80  70  71 W12       29.92S
DUBUQUE        MOSUNNY   81  72  74 SW10      29.94S
DECORAH        CLOUDY    77  73  88 VRB7      29.91S
MASON CITY     CLOUDY    76  70  82 N7        29.97R
CHARLES CITY   CLOUDY    75  73  94 W9        29.95R
OELWEIN        PTSUNNY   81  72  74 W12       29.93F
$$

...ELSEWHERE IN IOWA...


CITY           SKY/WX    TMP DP  RH WIND       PRES   REMARKS
DES MOINES     CLOUDY    81  71  71 W9        29.96F
IOWA CITY      SUNNY     83  70  64 VRB6      29.96S
FORT DODGE     PTSUNNY   79  70  73 NW7       29.98R
MARSHALLTOWN   CLOUDY    76  71  85 W9        29.95R
CEDAR RAPIDS   SUNNY     82  73  74 SW10      29.94S
$$

...NORTHERN ILLINOIS...


CITY           SKY/WX    TMP DP  RH WIND       PRES   REMARKS
CHICAGO-OHARE  CLOUDY    78  71  79 S20       29.92S
CHICAGO-MIDWAY PTSUNNY   78  71  79 S15G24    29.93F
MOLINE         MOSUNNY   82  70  66 SW12      29.95S
ROCKFORD       CLOUDY    78  71  79 SW10      29.95F
PEORIA         PTSUNNY   84  71  65 W15G21    29.98R
$$

NOTE: "FAIR" INDICATES FEW OR NO CLOUDS BELOW 12,000 FEET WITH NO
SIGNIFICANT WEATHER AND/OR OBSTRUCTIONS TO VISIBILITY. WIND
SPEEDS ARE IN MILES-PER-HOUR.




USA.gov is the U.S. government's official web portal to all federal, state and local government web resources and services.